Voltar ao catálogo

COSMOS 1858

AtivoNavegaçãoLEO
NORAD 18119·PAYLOAD·🇷🇺 Russia

Lançado Jun 16, 1987 de Plesetsk Cosmodrome

Loading…

Próximas Passagens (próximas 24 horas)

TLE

AtualizadoSource: Space-Track

Época: Sep 14, 2026, 14:58 UTC

1 18119U 87051G   26257.62416927  .00000004  00000-0  12435-3 0  9992
2 18119  74.0068 328.3956 0049096 320.4794 208.4192 12.56042275799511

Acompanhe COSMOS 1858 em tempo real com AllMySat

Download on the App Store